EW1587 Weather Reports


time (UTC)temp
F
wind
direction
speed
knots
gust
knots
rain 1hr
in
rain 24hr
in
rain mn
in
humidity
%
barometer
mb
20260904054522 74 200 0.0 1.7 0.00 0.00 0.00 95 1007.3
20260904054018 73 179 0.0 0.9 0.00 0.00 0.00 95 1007.3
20260904053521 74 242 0.0 0.9 0.00 0.00 0.00 95 1007.3
20260904053014 74 214 0.0 0.9 0.00 0.00 0.00 95 1007.2
20260904052513 74 246 0.0 0.9 0.00 0.00 0.00 94 1007.2
20260904052014 74 243 0.0 0.9 0.00 0.00 0.00 94 1007.3
20260904051510 74 242 0.0 0.9 0.00 0.00 0.00 94 1007.2
20260904051013 74 243 0.0 0.9 0.00 0.00 0.00 94 1007.2
20260904050507 74 238 0.0 0.9 0.00 0.00 0.00 93 1007.2
20260904050006 74 242 0.0 0.9 0.00 0.00 0.00 93 1007.1
20260904045507 74 238 0.0 0.9 0.00 0.00 0.00 93 1007.1
20260904045008 74 245 0.0 0.9 0.00 0.00 0.00 93 1007.1
20260904044508 74 243 0.0 0.9 0.00 0.00 0.00 92 1007.1
20260904044005 74 198 0.0 1.7 0.00 0.00 0.00 92 1007.1
20260904043504 74 242 0.0 1.7 0.00 0.00 0.00 92 1007.2
20260904043004 75 248 0.0 1.7 0.00 0.00 0.00 91 1007.2
20260904042504 75 207 0.0 0.9 0.00 0.00 0.00 91 1007.2
20260904042003 75 271 0.0 3.5 0.00 0.00 0.00 91 1007.1
20260904041504 75 226 0.0 3.5 0.00 0.00 0.00 90 1007.1
20260904041003 75 242 0.0 2.6 0.00 0.00 0.00 90 1007.2
20260904040503 75 145 0.0 0.9 0.00 0.00 0.00 90 1007.2
20260904040003 75 226 0.0 1.7 0.00 0.00 0.00 89 1007.1
20260904035503 75 174 0.0 1.7 0.00 0.00 0.00 89 1007.1
20260904035003 75 233 0.0 1.7 0.00 0.00 0.00 89 1007.1
20260904034503 76 195 0.0 1.7 0.00 0.00 0.00 88 1007.2
20260904034003 76 215 0.0 1.7 0.00 0.00 0.00 88 1007.2
20260904033503 76 277 0.0 3.5 0.00 0.00 0.00 88 1007.2
20260904033002 76 214 0.0 3.5 0.00 0.00 0.00 87 1007.1
20260904032502 76 243 0.0 3.5 0.00 0.00 0.00 87 1007.1
20260904032003 76 238 0.0 3.5 0.00 0.00 0.00 87 1007.1
20260904031502 76 208 0.0 3.5 0.00 0.00 0.00 86 1007.1
20260904031002 77 298 0.9 3.5 0.00 0.00 0.00 86 1007.2
20260904030501 77 158 0.0 3.5 0.00 0.00 0.00 86 1007.2
20260904030005 77 222 0.0 3.5 0.00 0.00 0.00 85 1007.2
20260904025501 77 240 0.0 4.3 0.00 0.00 0.00 85 1007.2
20260904025001 77 274 0.9 5.2 0.00 0.00 0.00 85 1007.2
20260904024601 77 212 0.9 5.2 0.00 0.00 0.00 84 1007.1
20260904024500 77 240 0.9 6.1 0.00 0.00 0.00 84 1007.1
20260904024001 77 249 0.9 6.1 0.00 0.00 0.00 84 1007.1
20260904023600 77 264 0.9 6.1 0.00 0.00 0.00 83 1007.1
20260904023059 77 162 1.7 6.1 0.00 0.00 0.00 83 1007.1
20260904022600 78 169 0.9 6.1 0.00 0.00 0.00 83 1007.0
20260904022058 78 165 0.9 4.3 0.00 0.00 0.00 83 1006.9
20260904021558 78 148 0.9 4.3 0.00 0.00 0.00 83 1007.0
20260904021057 78 225 0.0 4.3 0.00 0.00 0.00 82 1006.8
20260904020559 78 225 0.9 4.3 0.00 0.00 0.00 82 1006.8
20260904020057 78 190 0.0 2.6 0.00 0.00 0.00 81 1006.9
20260904015557 78 109 0.0 2.6 0.00 0.00 0.00 81 1006.9
20260904015055 78 128 0.0 2.6 0.00 0.00 0.00 81 1006.9
20260904014611 78 177 0.0 1.7 0.00 0.00 0.00 80 1006.8
20260904014056 79 99 0.0 1.7 0.00 0.00 0.00 80 1006.8
20260904013553 79 179 0.0 1.7 0.00 0.00 0.00 79 1006.7
20260904013053 79 34 0.0 1.7 0.00 0.00 0.00 79 1006.6
20260904012556 79 120 0.0 2.6 0.00 0.00 0.00 78 1006.7
20260904012052 79 152 0.0 2.6 0.00 0.00 0.00 78 1006.5
20260904011552 80 143 0.0 3.5 0.00 0.00 0.00 78 1006.4
20260904011052 80 174 0.0 3.5 0.00 0.00 0.00 77 1006.3
20260904010552 80 187 0.0 4.3 0.00 0.00 0.00 77 1006.3
20260904010052 80 162 1.7 4.3 0.00 0.00 0.00 76 1006.3
20260904005553 81 174 0.0 3.5 0.00 0.00 0.00 75 1006.3
20260904005051 81 186 0.9 5.2 0.00 0.00 0.00 74 1006.3
20260904004551 82 184 0.9 5.2 0.00 0.00 0.00 73 1006.3
20260904004053 82 238 1.7 4.3 0.00 0.00 0.00 72 1006.3
20260904003552 82 224 0.9 3.5 0.00 0.00 0.00 71 1006.3
20260904003050 83 248 0.0 7.0 0.00 0.00 0.00 70 1006.2
20260904002553 83 244 0.9 7.0 0.00 0.00 0.00 69 1006.2
20260904002051 84 143 0.0 6.1 0.00 0.00 0.00 69 1006.2
20260904001550 84 170 0.9 5.2 0.00 0.00 0.00 69 1006.2
20260904001050 84 215 0.0 7.0 0.00 0.00 0.00 69 1006.2
20260904000553 84 240 1.7 8.7 0.00 0.00 0.00 69 1006.3
20260904000051 83 223 2.6 8.7 0.00 0.00 0.00 70 1006.3
20260903235553 83 283 1.7 7.0 0.00 0.00 0.00 70 1006.4
20260903235049 83 222 0.9 4.3 0.00 0.00 0.00 70 1006.4
20260903234550 83 252 0.9 3.5 0.00 0.00 0.00 70 1006.5
20260903234050 84 141 0.0 2.6 0.00 0.00 0.00 70 1006.5
20260903233550 84 193 0.0 2.6 0.00 0.00 0.00 70 1006.6
20260903233050 84 225 0.0 2.6 0.00 0.00 0.00 69 1006.6
20260903232550 84 248 0.0 2.6 0.00 0.00 0.00 68 1006.6
20260903232052 84 214 0.9 4.3 0.00 0.00 0.00 67 1006.5
20260903231555 85 248 0.0 7.0 0.00 0.00 0.00 67 1006.4
20260903231048 84 264 2.6 7.0 0.00 0.00 0.00 67 1006.3
20260903230548 85 179 1.7 6.1 0.00 0.00 0.00 68 1006.2
20260903230051 85 170 0.9 7.8 0.00 0.00 0.00 68 1006.0
20260903225548 85 195 1.7 7.8 0.00 0.00 0.00 68 1005.9
20260903225049 85 252 0.9 7.0 0.00 0.00 0.00 69 1005.6
20260903224548 85 174 0.9 7.0 0.00 0.00 0.00 69 1005.6
20260903224048 85 210 0.9 7.8 0.00 0.00 0.00 68 1005.6
20260903223548 85 257 1.7 7.8 0.00 0.00 0.00 68 1005.6
20260903223048 85 198 1.7 10.4 0.00 0.00 0.00 67 1005.4
20260903222550 86 167 3.5 11.3 0.00 0.00 0.00 66 1005.5
20260903222047 86 166 5.2 10.4 0.00 0.00 0.00 66 1005.2
20260903221546 85 193 2.6 9.6 0.00 0.00 0.00 68 1005.5
20260903221044 85 78 0.9 9.6 0.00 0.00 0.00 69 1005.6
20260903220544 84 244 1.7 11.3 0.00 0.00 0.00 69 1005.8
20260903220048 84 200 3.5 11.3 0.00 0.00 0.00 68 1005.9
20260903215545 85 159 2.6 12.2 0.00 0.00 0.00 68 1005.8
20260903215043 84 277 1.7 12.2 0.00 0.00 0.00 68 1006.0
20260903214545 84 225 1.7 7.8 0.00 0.00 0.00 69 1006.0
20260903214042 84 185 3.5 9.6 0.00 0.00 0.00 69 1005.9
20260903213542 84 160 3.5 9.6 0.00 0.00 0.00 69 1006.0
20260903213042 84 195 2.6 12.2 0.00 0.00 0.00 68 1006.1
20260903212541 84 290 2.6 12.2 0.00 0.00 0.00 67 1006.0
20260903212041 85 181 0.9 5.2 0.00 0.00 0.00 67 1006.1
20260903211541 85 267 1.7 5.2 0.00 0.00 0.00 66 1006.1
20260903211041 86 264 0.9 6.1 0.00 0.00 0.00 67 1006.1
20260903210541 86 248 2.6 8.7 0.00 0.00 0.00 65 1006.2
20260903210044 86 270 4.3 10.4 0.00 0.00 0.00 66 1006.0
20260903205541 86 231 2.6 11.3 0.00 0.00 0.00 68 1006.0
20260903205040 85 245 4.3 11.3 0.00 0.00 0.00 67 1006.0
20260903204540 84 315 2.6 12.2 0.00 0.00 0.00 69 1006.2
20260903204043 84 267 5.2 12.2 0.00 0.00 0.00 69 1006.1
20260903203540 84 260 4.3 9.6 0.00 0.00 0.00 69 1006.1
20260903203039 84 264 3.5 10.4 0.00 0.00 0.00 67 1006.1
20260903202541 84 282 3.5 11.3 0.00 0.00 0.00 67 1006.1
20260903202039 84 222 4.3 11.3 0.00 0.00 0.00 67 1006.1
20260903201539 84 243 1.7 10.4 0.00 0.00 0.00 68 1006.2
20260903201041 84 200 3.5 10.4 0.00 0.00 0.00 67 1006.3
20260903200538 85 85 4.3 10.4 0.00 0.00 0.00 66 1006.1
20260903200037 85 160 4.3 9.6 0.00 0.00 0.00 65 1006.2
20260903195539 86 60 2.6 7.8 0.00 0.00 0.00 64 1006.3
20260903195036 86 226 2.6 7.0 0.00 0.00 0.00 65 1006.3
20260903194534 86 290 1.7 11.3 0.00 0.00 0.00 65 1006.4
20260903194036 86 190 5.2 11.3 0.00 0.00 0.00 64 1006.6
20260903193533 86 211 3.5 11.3 0.00 0.00 0.00 65 1006.7
20260903193032 86 148 5.2 10.4 0.00 0.00 0.00 64 1006.9
20260903192532 85 303 1.7 9.6 0.00 0.00 0.00 66 1006.7
20260903192035 84 176 3.5 9.6 0.00 0.00 0.00 66 1006.6
20260903191546 84 197 3.5 8.7 0.00 0.00 0.00 66 1006.8
20260903191033 83 204 0.9 7.8 0.00 0.00 0.00 67 1006.8
20260903190531 83 255 1.7 7.8 0.00 0.00 0.00 67 1007.0
20260903190031 83 261 2.6 7.8 0.00 0.00 0.00 67 1007.0
20260903185530 83 284 1.7 10.4 0.00 0.00 0.00 67 1006.9
20260903185033 83 269 3.5 10.4 0.00 0.00 0.00 67 1007.0
20260903184541 84 222 1.7 6.1 0.00 0.00 0.00 66 1007.0
20260903184032 84 219 2.6 7.0 0.00 0.00 0.00 65 1007.2
20260903183528 84 255 1.7 8.7 0.00 0.00 0.00 65 1007.4
20260903183028 85 267 3.5 9.6 0.00 0.00 0.00 64 1007.5
20260903182529 85 307 2.6 11.3 0.00 0.00 0.00 64 1007.5
20260903182027 85 260 4.3 11.3 0.00 0.00 0.00 62 1007.5
20260903181527 86 212 4.3 9.6 0.00 0.00 0.00 61 1007.5
20260903181027 86 188 4.3 13.0 0.00 0.00 0.00 62 1007.5
20260903180527 86 217 3.5 7.8 0.00 0.00 0.00 65 1007.3
20260903180032 85 284 1.7 7.8 0.00 0.00 0.00 65 1007.4
20260903175524 85 153 0.9 6.1 0.00 0.00 0.00 66 1007.5
20260903175023 84 214 1.7 7.0 0.00 0.00 0.00 66 1007.5
20260903174522 84 252 1.7 7.0 0.00 0.00 0.00 66 1007.7
20260903174022 84 186 3.5 9.6 0.00 0.00 0.00 66 1007.8
20260903173521 83 156 1.7 9.6 0.00 0.00 0.00 68 1007.8
20260903173022 83 160 3.5 10.4 0.00 0.00 0.00 67 1007.9
20260903172522 82 245 2.6 7.0 0.00 0.00 0.00 67 1007.9
20260903172020 82 231 3.5 7.0 0.00 0.00 0.00 66 1008.0
20260903171521 83 181 1.7 7.0 0.00 0.00 0.00 66 1008.0
20260903171019 83 134 1.7 12.2 0.00 0.00 0.00 65 1007.9
20260903170519 84 236 4.3 12.2 0.00 0.00 0.00 62 1008.0
20260903170020 84 200 1.7 8.7 0.00 0.00 0.00 63 1008.1
20260903165518 84 263 2.6 8.7 0.00 0.00 0.00 62 1008.2
20260903165019 85 211 0.9 8.7 0.00 0.00 0.00 61 1008.1
20260903164517 85 239 1.7 7.8 0.00 0.00 0.00 62 1008.2
20260903164017 85 191 2.6 7.8 0.00 0.00 0.00 62 1008.2
20260903163516 85 184 0.9 7.8 0.00 0.00 0.00 61 1008.3
20260903163016 85 236 1.7 6.1 0.00 0.00 0.00 61 1008.3
20260903162515 84 243 2.6 6.1 0.00 0.00 0.00 63 1008.3
20260903162013 84 193 1.7 9.6 0.00 0.00 0.00 63 1008.2
20260903161512 83 252 1.7 9.6 0.00 0.00 0.00 64 1008.3
20260903161011 83 240 1.7 8.7 0.00 0.00 0.00 66 1008.3
20260903160510 83 246 0.9 7.0 0.00 0.00 0.00 69 1008.3
20260903160013 82 92 1.7 7.0 0.00 0.00 0.00 70 1008.4
20260903155510 82 163 0.9 7.0 0.00 0.00 0.00 71 1008.5
20260903155006 81 176 0.9 9.6 0.00 0.00 0.00 72 1008.5
20260903154506 81 187 3.5 9.6 0.00 0.00 0.00 70 1008.4
20260903154004 81 235 0.9 8.7 0.00 0.00 0.00 73 1008.4
20260903153502 80 232 2.6 8.7 0.00 0.00 0.00 73 1008.5
20260903153101 80 97 3.5 6.1 0.00 0.00 0.00 74 1008.5
20260903152600 80 143 1.7 6.1 0.00 0.00 0.00 75 1008.4
20260903152102 79 194 1.7 5.2 0.00 0.00 0.00 76 1008.4
20260903151558 79 136 0.9 7.8 0.00 0.00 0.00 78 1008.5
20260903151056 79 311 3.5 7.8 0.00 0.00 0.00 77 1008.4
20260903150556 79 231 2.6 6.1 0.00 0.00 0.00 79 1008.4
20260903150055 79 100 1.7 6.1 0.00 0.00 0.00 80 1008.5
20260903145554 78 75 1.7 6.1 0.00 0.00 0.00 81 1008.5
20260903145053 77 174 0.0 5.2 0.00 0.00 0.00 84 1008.4
20260903144552 76 117 1.7 6.1 0.00 0.00 0.00 84 1008.3
20260903144052 76 87 1.7 6.1 0.00 0.00 0.00 85 1008.4
20260903143548 75 111 2.6 6.1 0.00 0.00 0.00 85 1008.5
20260903143105 75 81 1.7 5.2 0.00 0.00 0.00 86 1008.4
20260903142546 75 124 1.7 6.1 0.00 0.00 0.00 87 1008.4
20260903142045 74 113 3.5 6.1 0.00 0.00 0.00 87 1008.5
20260903141544 74 89 0.0 6.1 0.00 0.00 0.00 89 1008.7
20260903141045 73 97 1.7 6.1 0.00 0.00 0.00 90 1008.7
20260903140541 73 103 1.7 4.3 0.00 0.00 0.00 91 1008.7
20260903140039 72 75 0.9 4.3 0.00 0.00 0.00 92 1008.8
20260903135539 72 91 1.7 4.3 0.00 0.00 0.00 92 1008.9
20260903135038 72 89 1.7 4.3 0.00 0.00 0.00 92 1009.0
20260903134537 71 90 0.9 4.3 0.00 0.00 0.00 92 1009.0
20260903134038 71 117 2.6 4.3 0.00 0.00 0.00 92 1009.1
20260903133537 71 97 1.7 3.5 0.00 0.00 0.00 92 1009.3
20260903133036 71 86 1.7 3.5 0.00 0.00 0.00 93 1009.2
20260903132535 71 103 0.9 3.5 0.00 0.00 0.00 94 1009.1
20260903132035 70 88 1.7 3.5 0.00 0.00 0.00 93 1008.9
20260903131538 70 94 1.7 3.5 0.00 0.00 0.00 94 1008.9
20260903131036 70 94 1.7 3.5 0.00 0.00 0.00 96 1008.9
20260903130538 69 79 1.7 3.5 0.00 0.00 0.00 96 1008.8
20260903130035 69 89 1.7 3.5 0.00 0.00 0.00 97 1008.8
20260903125535 68 81 0.9 5.2 0.00 0.00 0.00 97 1008.7
20260903125034 68 81 1.7 4.3 0.00 0.00 0.00 97 1008.8
20260903124539 68 96 2.6 7.0 0.00 0.00 0.00 97 1009.0
20260903124034 68 96 2.6 7.0 0.00 0.00 0.00 97 1009.0
20260903123535 67 85 1.7 4.3 0.00 0.00 0.00 97 1008.9
20260903123039 67 100 0.9 3.5 0.00 0.00 0.00 97 1008.9
20260903122534 67 65 1.7 3.5 0.00 0.00 0.00 97 1008.8
20260903122034 67 65 0.9 3.5 0.00 0.00 0.00 97 1008.8
20260903121535 67 91 0.9 4.3 0.00 0.00 0.00 97 1008.7
20260903121034 67 81 1.7 4.3 0.00 0.00 0.00 97 1008.8
20260903120536 67 101 1.7 3.5 0.00 0.00 0.00 97 1008.8
20260903120035 67 92 1.7 3.5 0.00 0.00 0.00 96 1008.8
20260903115534 67 86 1.7 4.3 0.00 0.00 0.00 96 1008.9
20260903115035 67 79 1.7 5.2 0.00 0.00 0.00 96 1008.8
20260903114533 67 82 0.9 5.2 0.00 0.00 0.00 96 1008.8
20260903114034 67 86 1.7 4.3 0.00 0.00 0.00 96 1009.0
20260903113532 67 91 1.7 4.3 0.00 0.00 0.00 96 1008.8
20260903113040 67 97 1.7 4.3 0.00 0.00 0.00 97 1008.7
20260903112531 67 92 0.9 4.3 0.00 0.00 0.00 96 1008.6
20260903112030 67 107 1.7 3.5 0.00 0.00 0.00 96 1008.6
20260903111530 67 95 1.7 3.5 0.00 0.00 0.00 96 1008.6
20260903111032 67 84 0.9 2.6 0.00 0.00 0.00 96 1008.6
20260903110529 67 91 1.7 2.6 0.00 0.00 0.00 96 1008.7
20260903110032 67 74 0.9 3.5 0.00 0.00 0.00 96 1008.8
20260903105529 67 90 1.7 3.5 0.00 0.00 0.00 96 1008.8
20260903105029 67 101 1.7 3.5 0.00 0.00 0.00 96 1008.9
20260903104529 67 96 1.7 3.5 0.00 0.00 0.00 96 1009.0
20260903104028 67 77 0.9 3.5 0.00 0.00 0.00 96 1008.9
20260903103528 67 71 0.9 3.5 0.00 0.00 0.00 96 1009.0
20260903103028 67 98 0.9 2.6 0.00 0.00 0.00 96 1008.9
20260903102528 67 65 0.0 1.7 0.00 0.00 0.00 95 1008.9
20260903102031 68 81 0.0 1.7 0.00 0.00 0.00 95 1008.8
20260903101527 68 103 0.0 1.7 0.00 0.00 0.00 95 1008.8
20260903101031 68 92 0.0 0.9 0.00 0.00 0.00 94 1008.7
20260903100527 68 77 0.0 2.6 0.00 0.00 0.00 94 1008.7
20260903100027 68 94 0.9 2.6 0.00 0.00 0.00 95 1008.8
20260903095528 68 84 0.0 2.6 0.00 0.00 0.00 95 1008.7
20260903095027 68 77 0.0 1.7 0.00 0.00 0.00 95 1008.7
20260903094526 67 82 0.0 1.7 0.00 0.00 0.00 95 1008.6
20260903094026 67 77 0.0 0.9 0.00 0.00 0.00 94 1008.6
20260903093525 68 83 0.0 0.9 0.00 0.00 0.00 93 1008.7
20260903093041 68 86 0.0 3.5 0.00 0.00 0.00 93 1008.7
20260903092523 68 92 0.0 4.3 0.00 0.00 0.00 93 1008.6
20260903092145 68 97 1.7 4.3 0.00 0.00 0.00 93 1008.6
20260903091019 68 101 1.7 2.6 0.00 0.00 0.00 93 1008.7
20260903090519 68 90 0.9 2.6 0.00 0.00 0.00 93 1008.8
20260903090018 68 87 0.0 3.5 0.00 0.00 0.00 92 1008.7
20260903085518 68 101 1.7 3.5 0.00 0.00 0.00 92 1008.7
20260903085018 68 88 0.9 2.6 0.00 0.00 0.00 92 1008.7
20260903084523 68 86 0.0 1.7 0.00 0.00 0.00 92 1008.8
20260903084017 68 81 0.0 3.5 0.00 0.00 0.00 92 1008.7
20260903083516 68 84 1.7 3.5 0.00 0.00 0.00 92 1008.8
20260903083015 68 96 1.7 3.5 0.00 0.00 0.00 93 1008.9
20260903082515 68 108 0.9 2.6 0.00 0.00 0.00 92 1008.9
20260903082015 68 84 0.9 2.6 0.00 0.00 0.00 92 1009.1
20260903081515 68 77 0.9 1.7 0.00 0.00 0.00 92 1009.0
20260903081014 68 94 0.0 1.7 0.00 0.00 0.00 91 1008.9
20260903080513 68 84 0.0 2.6 0.00 0.00 0.00 90 1009.0
20260903080135 68 91 0.9 2.6 0.00 0.00 0.00 90 1009.0
20260903075514 68 98 0.9 3.5 0.00 0.00 0.00 89 1009.0
20260903075013 68 113 0.9 3.5 0.00 0.00 0.00 90 1009.1
20260903074512 68 91 0.9 2.6 0.00 0.00 0.00 89 1009.0
20260903074011 69 95 0.0 2.6 0.00 0.00 0.00 88 1009.1
20260903073511 69 82 1.7 2.6 0.00 0.00 0.00 89 1009.2
20260903073011 69 117 0.9 1.7 0.00 0.00 0.00 89 1009.4
20260903072510 69 93 0.0 1.7 0.00 0.00 0.00 88 1009.3
20260903072010 69 85 0.0 2.6 0.00 0.00 0.00 88 1009.3
20260903071510 69 96 0.9 3.5 0.00 0.00 0.00 88 1009.3
20260903071009 69 101 1.7 3.5 0.00 0.00 0.00 88 1009.3
20260903070508 69 86 0.0 2.6 0.00 0.00 0.00 87 1009.4
20260903070007 69 99 0.9 2.6 0.00 0.00 0.00 87 1009.4
20260903065507 69 109 0.0 1.7 0.00 0.00 0.00 87 1009.5
20260903065006 69 84 0.0 2.6 0.00 0.00 0.00 86 1009.5
20260903064504 69 73 0.0 2.6 0.00 0.00 0.00 86 1009.6
20260903064007 69 86 0.9 2.6 0.00 0.00 0.00 85 1009.6
20260903063503 70 107 0.9 2.6 0.00 0.00 0.00 84 1009.5
20260903063002 70 101 0.9 3.5 0.00 0.00 0.00 84 1009.5
20260903062502 70 47 0.0 3.5 0.00 0.00 0.00 83 1009.5
20260903062101 70 105 1.7 3.5 0.00 0.00 0.00 83 1009.6
20260903061607 70 105 0.9 2.6 0.00 0.00 0.00 83 1009.6
20260903061059 70 105 1.7 3.5 0.00 0.00 0.00 83 1009.7
20260903060559 70 98 1.7 3.5 0.00 0.00 0.00 83 1009.7
20260903060059 70 96 1.7 3.5 0.00 0.00 0.00 82 1009.7
20260903055559 70 75 1.7 3.5 0.00 0.00 0.00 82 1009.7
20260903055058 70 65 1.7 3.5 0.00 0.00 0.00 83 1009.7